This is the latest recevied weather packets stored in our database for station/object KO6LQJ. If no packets are shown the sender has not sent any weather packets the latest 10 day(s).
| Time | Temp. | Humidity | Pressure | Rain* | Wind** | Luminosity | Snow |
|---|---|---|---|---|---|---|---|
| 1777818410 | 14.44° C | 77% | 1015.2 hPa | 0 mm | - | 27 W/m² | - |
| 1777818107 | 14.44° C | 77% | 1014.9 hPa | 0 mm | - | 21 W/m² | - |
| 1777817804 | 14.44° C | 77% | 1015.2 hPa | 0 mm | - | 17 W/m² | - |
| 1777817502 | 14.44° C | 77% | 1014.8 hPa | 0 mm | - | 16 W/m² | - |
| 1777817197 | 14.44° C | 78% | 1014.7 hPa | 0 mm | - | 15 W/m² | - |
| 1777816895 | 14.44° C | 78% | 1015.1 hPa | 0 mm | - | 12 W/m² | - |
| 1777816592 | 14.44° C | 78% | 1015.1 hPa | 0 mm | - | 11 W/m² | - |
| 1777816289 | 14.44° C | 78% | 1014.8 hPa | 0 mm | - | 8 W/m² | - |
| 1777815986 | 14.44° C | 77% | 1014.9 hPa | 0 mm | - | 5 W/m² | - |
| 1777815683 | 14.44° C | 76% | 1014.9 hPa | 0 mm | - | 5 W/m² | - |
| 1777815381 | 14.44° C | 75% | 1014.7 hPa | 0 mm | - | 3 W/m² | - |
| 1777815077 | 15° C | 75% | 1014.7 hPa | 0 mm | - | 2 W/m² | - |
| 1777814774 | 14.44° C | 74% | 1014.7 hPa | 0 mm | - | 2 W/m² | - |
| 1777814471 | 14.44° C | 73% | 1014.4 hPa | 0 mm | - | 2 W/m² | - |
| 1777814168 | 14.44° C | 73% | 1014.6 hPa | 0 mm | - | 0 W/m² | - |
| 1777813865 | 15° C | 73% | 1014.9 hPa | 0 mm | - | 0 W/m² | - |
| 1777813562 | 14.44° C | 73% | 1014.6 hPa | 0 mm | - | 0 W/m² | - |
| 1777813260 | 14.44° C | 73% | 1014.6 hPa | 0 mm | - | 0 W/m² | - |
| 1777812957 | 14.44° C | 73% | 1014.7 hPa | 0 mm | - | 0 W/m² | - |
| 1777812654 | 14.44° C | 73% | 1014.7 hPa | 0 mm | - | 0 W/m² | - |
| 1777812350 | 15° C | 73% | 1014.5 hPa | 0 mm | - | 0 W/m² | - |
| 1777812049 | 15° C | 73% | 1014.4 hPa | 0 mm | - | 0 W/m² | - |
| 1777811747 | 15° C | 73% | 1014.3 hPa | 0 mm | - | 0 W/m² | - |
| 1777811443 | 15° C | 73% | 1014.4 hPa | 0 mm | - | 0 W/m² | - |
| 1777811140 | 15° C | 73% | 1014.5 hPa | 0 mm | - | 0 W/m² | - |
* Rain latest hour (hover to see other rain measurements)
** Current wind speed in m/s (hover to see current wind gust speed)